Temp
15 15 14 14 14 13 13 14 14 14 13 13 13 13 13 13 13 13 13 13 13 13 13 13 13 14 14 14 14 14 14 14 14 14 14 13 13 13 12 12 13 13 13 12 12 12 12 12 11 11 11 11 11 11 10 10 9 9 9 9 9 9 9 8 8 8 8 8 9
15 15 15 14 14 14 14 14 14 14 14 13 13 13 13 13 13 13 13 13 13 13 13 13 13 13 13 13 13 13 13 13 13 13 13 13 13 12 12 12 13 13 12 12 12 12 12 12 11 11 11 11 11 11 10 10 9 9 9 9 9 9 9 8 8 8 8 8 9
15 15 15 15 15 14 14 14 14 14 14 14 14 14 13 13 13 12 12 12 12 12 12 12 12 12 12 13 13 13 13 13 13 13 13 13 13 12 12 12 12 12 12 12 12 12 12 12 12 11 11 11 11 11 11 10 9 9 9 9 9 9 9 9 8 8 8 8 9
15 15 15 15 15 15 15 15 15 15 15 14 14 14 13 13 13 12 12 12 12 12 12 12 12 12 12 12 13 13 13 12 12 12 12 12 12 12 12 12 12 12 11 11 11 11 11 12 12 12 11 11 11 11 11 10 9 9 9 9 9 9 9 9 9 8 8 8 9
15 15 15 15 15 15 15 15 14 14 14 14 14 13 13 12 12 12 12 12 12 12 12 12 12 12 12 12 12 12 12 12 12 12 12 12 12 12 12 12 11 11 10 10 11 11 11 11 11 11 11 11 11 11 10 10 9 9 9 9 9 9 9 9 9 9 9 8 9
15 15 15 15 15 15 15 14 14 14 13 13 13 12 12 12 12 12 12 12 12 12 11 12 12 12 12 12 12 12 11 11 11 11 11 12 12 12 12 11 10 10 9 10 10 10 10 10 10 11 11 11 10 10 10 9 9 9 9 9 9 9 9 9 9 9 9 9 9
15 15 15 15 15 15 15 15 14 14 13 13 12 12 12 12 12 13 13 13 12 12 12 12 12 12 12 11 11 11 11 11 11 11 11 12 12 12 11 10 10 9 9 9 9 9 10 10 10 10 10 10 10 10 9 9 9 9 9 9 9 9 9 9 9 9 9 9 9
15 15 15 15 15 15 15 15 14 14 13 12 12 12 12 12 12 12 13 13 13 12 12 12 12 11 11 11 11 11 10 10 11 11 11 11 12 11 10 10 9 9 9 9 9 9 9 9 9 9 9 9 9 9 9 9 9 8 8 8 8 8 8 8 9 9 9 9 9
14 15 15 15 15 15 15 15 14 14 13 12 12 12 12 12 12 12 13 13 13 12 12 12 11 11 11 11 10 10 10 10 10 11 11 11 11 10 10 9 9 9 9 9 9 9 9 9 9 9 9 9 9 9 9 9 8 8 8 8 8 8 8 8 8 8 9 9 9
14 14 14 15 15 15 15 14 14 14 13 12 12 12 12 12 12 12 12 12 12 12 12 11 11 11 11 10 10 10 10 10 10 11 11 11 10 10 9 9 8 8 8 8 8 9 9 9 9 9 9 9 8 8 8 8 8 7 7 7 7 8 8 8 8 8 8 8 8
13 14 14 14 14 14 14 14 14 14 13 12 12 12 12 12 12 12 12 12 12 11 11 11 11 11 10 10 10 10 10 10 10 11 11 10 10 9 9 9 8 8 8 8 8 8 8 8 8 8 8 8 8 8 7 7 7 7 7 7 7 7 7 7 7 7 7 7 7
13 13 13 14 14 14 14 14 14 13 12 11 11 12 12 12 12 12 12 12 11 11 11 11 11 11 10 10 10 10 10 10 10 10 10 10 10 9 9 8 8 8 8 8 8 8 8 8 8 8 8 7 7 7 7 7 7 7 7 7 7 7 7 7 7 7 7 7 7
12 13 13 13 13 14 14 14 13 12 12 11 12 12 12 12 12 11 11 11 10 10 10 10 10 10 10 9 9 9 10 10 10 10 10 10 10 10 9 9 8 8 8 8 8 8 8 8 8 8 8 7 7 7 7 7 7 7 7 7 7 7 7 6 6 6 6 6 6
12 12 12 13 13 13 13 13 12 12 12 12 13 13 12 11 11 11 10 10 10 10 10 10 10 9 9 9 9 9 9 9 10 10 10 10 10 9 9 9 8 8 8 8 8 8 8 8 8 8 7 7 7 6 6 7 7 7 6 6 6 6 6 6 6 6 6 6 5
11 12 12 12 12 13 13 12 12 12 13 13 13 12 11 11 10 10 10 10 10 9 9 9 9 9 9 9 9 9 9 9 9 9 9 9 9 9 9 9 8 8 8 8 7 7 7 7 7 7 7 6 6 6 6 7 7 6 6 6 6 6 6 6 6 5 5 5 4
11 11 11 12 12 12 12 12 12 13 13 13 12 11 11 10 10 10 9 9 9 9 9 9 9 9 9 9 9 9 9 9 9 9 9 9 9 9 9 9 8 8 7 7 7 7 7 7 7 7 6 6 6 6 6 6 6 6 6 6 6 6 6 5 5 5 4 4 3
10 10 11 11 11 11 12 12 12 12 12 11 11 10 10 9 9 9 9 9 9 9 9 9 9 9 9 9 9 9 9 9 9 9 9 9 9 9 9 8 8 7 7 7 7 7 7 7 7 7 7 7 6 6 6 6 6 6 6 6 5 5 5 4 4 4 3 3 3
10 10 10 11 11 11 11 12 12 11 11 10 10 10 9 9 9 9 9 9 9 8 9 9 9 9 9 8 8 8 8 9 9 9 9 9 8 8 8 8 7 7 7 7 7 6 6 6 7 7 7 7 6 6 6 6 6 5 5 5 5 4 4 3 3 3 3 2 2
9 10 10 10 11 11 11 11 11 11 10 10 10 9 9 9 8 8 8 8 8 8 8 8 8 8 8 8 8 8 8 8 8 8 8 8 8 7 7 7 7 7 6 6 6 6 6 6 7 7 7 7 6 6 5 5 5 5 5 4 4 3 3 2 2 2 2 2 2
9 10 10 10 10 11 10 10 10 10 10 10 9 9 8 8 8 8 8 8 8 8 8 8 8 8 8 8 8 8 8 8 8 8 7 7 7 7 7 7 6 6 6 6 6 6 6 6 7 7 7 6 6 5 5 5 4 4 4 3 3 2 2 2 2 2 2 2 1
9 9 10 10 10 10 10 10 10 9 9 9 9 8 8 8 8 7 7 7 7 7 7 8 8 8 8 8 7 7 7 7 7 7 7 7 6 6 6 6 6 6 6 5 5 5 6 6 6 6 6 5 5 4 4 4 4 3 3 3 2 2 2 2 1 1 1 1 1
8 9 9 9 9 9 9 9 9 9 9 8 8 8 8 7 7 7 7 7 7 7 7 7 7 7 7 7 7 7 7 7 7 6 6 6 6 6 6 6 6 5 5 5 5 5 5 6 5 5 4 4 4 4 3 3 3 3 2 2 2 2 1 1 1 1 1 1 1
8 8 8 9 9 8 8 8 8 8 8 8 8 7 7 7 7 7 7 6 6 6 7 7 6 6 6 6 7 7 7 6 6 6 6 5 5 5 5 5 5 5 5 5 4 4 5 5 4 4 3 3 3 3 3 2 2 2 2 2 2 1 1 1 1 1 1 1 1
8 8 8 8 8 8 8 8 8 7 7 7 7 7 7 7 7 6 6 6 6 6 6 6 6 6 6 6 6 6 6 6 6 5 5 5 5 5 5 5 5 5 4 4 4 4 4 4 3 3 3 3 3 2 2 2 2 2 2 1 1 1 1 1 1 1 0 0 0
7 7 7 7 7 7 7 7 7 7 7 7 7 7 7 7 7 7 6 6 6 6 6 6 6 6 6 6 6 6 6 5 5 5 4 4 4 4 4 4 4 4 4 4 4 3 3 3 3 3 3 3 2 2 2 1 1 1 1 1 1 1 1 0 0 0 0 0 0
6 7 7 7 7 7 7 7 7 7 7 7 7 7 8 7 7 7 7 6 6 6 6 6 6 6 6 5 5 5 5 5 4 4 4 4 4 4 3 3 3 4 4 3 3 2 2 2 2 3 3 2 2 2 1 1 1 1 1 0 0 0 0 0 0 0 0 0 0
6 6 6 7 7 7 7 7 7 8 7 7 7 7 7 7 7 7 6 6 6 6 6 6 6 6 5 5 5 5 4 4 4 4 3 3 3 3 3 3 3 3 3 2 2 2 2 2 2 2 2 2 2 1 1 1 0 0 0 0 0 0 0 0 0 0 0 0 0
6 6 6 7 7 7 7 7 8 8 8 8 7 8 8 7 7 7 7 6 6 6 6 6 5 5 5 5 4 4 4 4 3 3 3 3 3 3 3 2 2 2 2 2 2 2 2 2 1 1 1 1 1 1 1 0 0 0 0 0 0 0 0 0 0 0 0 0 0
6 6 6 7 7 7 7 7 8 8 8 8 8 8 8 7 7 7 7 6 6 6 6 6 5 5 5 4 4 4 3 3 3 3 3 3 2 2 2 2 2 2 1 1 1 1 1 1 1 1 0 0 0 0 0 0 0 0 0 0 0 0 0 0 0 0 0 0 0
6 6 6 7 7 7 7 7 7 7 8 8 8 8 7 7 7 6 6 6 6 6 5 5 5 5 4 4 4 3 3 3 3 2 2 2 2 2 1 1 1 1 1 1 1 0 0 0 0 0 -0 -0 -0 -0 -0 0 0 0 0 0 0 0 0 0 0 0 0 -0 -0
6 6 6 6 6 7 7 7 7 7 7 7 7 7 7 6 6 6 6 6 5 5 5 5 5 4 4 3 3 3 2 2 2 2 2 2 1 1 1 1 0 0 -0 -0 -0 -0 -0 -0 -0 -0 -0 -0 -0 -0 -0 -0 -0 0 0 0 0 0 0 0 0 -0 -0 -0 -0
5 6 6 6 6 6 6 7 7 7 7 7 7 6 6 6 6 6 5 5 5 5 5 4 4 4 3 3 2 2 2 2 2 1 1 1 1 1 0 -0 -0 -1 -1 -1 -1 -0 -0 -0 -0 -1 -1 -1 -0 -0 -0 -0 -0 0 0 0 0 0 0 -0 -0 -0 -0 -1 -1
5 5 5 5 6 6 6 6 6 6 6 6 6 6 6 6 5 5 5 5 5 4 4 4 3 3 3 2 2 2 1 1 1 1 1 1 0 0 -0 -1 -1 -1 -1 -1 -1 -1 -1 -1 -1 -1 -1 -1 -0 -0 -0 -0 -0 0 0 0 -0 -0 -0 -0 -1 -1 -1 -1 -1
5 5 5 5 5 5 5 5 5 5 5 5 5 5 5 5 5 4 4 4 4 3 3 3 2 2 2 2 1 1 1 1 1 0 0 -0 -0 -0 -1 -1 -1 -1 -1 -1 -1 -1 -1 -1 -1 -1 -1 -0 -0 -0 -0 -0 -0 -0 -0 -0 -0 -1 -1 -1 -1 -1 -1 -1 -1
5 5 5 5 5 5 5 5 4 4 4 4 4 4 4 4 4 4 3 3 3 2 2 2 2 1 1 1 1 1 0 0 -0 -0 -0 -1 -1 -1 -1 -1 -2 -2 -1 -1 -1 -1 -1 -1 -1 -1 -0 -0 -0 -0 -0 -0 -0 -0 -1 -1 -1 -1 -1 -1 -1 -1 -1 -1 -1
4 4 4 4 4 4 4 4 4 4 4 3 3 3 3 3 3 3 2 2 2 2 2 1 1 1 1 0 0 -0 -0 -0 -1 -1 -1 -1 -1 -1 -1 -2 -2 -2 -1 -1 -1 -1 -1 -1 -1 -0 -0 -0 -0 -0 -0 -0 -1 -1 -1 -1 -1 -1 -1 -1 -1 -1 -1 -1 -1
4 4 4 4 3 3 3 3 3 3 3 3 3 3 2 2 2 2 2 1 1 1 1 1 1 0 0 -0 -0 -1 -1 -1 -1 -1 -1 -2 -1 -1 -1 -1 -1 -1 -1 -1 -1 -1 -1 -1 -0 -0 -0 -0 -0 -0 -1 -1 -1 -1 -1 -1 -1 -1 -1 -1 -1 -1 -1 -1 -1
3 3 3 3 3 3 3 3 2 2 2 2 2 2 2 1 1 1 1 1 1 1 0 0 -0 -0 -1 -1 -1 -1 -2 -2 -2 -2 -2 -2 -2 -1 -1 -1 -1 -1 -1 -1 -1 -1 -1 -1 -0 -0 -0 -1 -1 -1 -1 -1 -1 -1 -1 -1 -1 -1 -1 -1 -1 -1 -1 -2 -2
2 2 2 2 2 2 2 2 2 2 2 2 1 1 1 1 1 1 1 0 0 0 -0 -0 -1 -1 -1 -2 -2 -2 -2 -2 -2 -2 -2 -2 -2 -1 -1 -1 -1 -1 -1 -1 -1 -1 -1 -1 -1 -1 -1 -1 -1 -1 -1 -1 -1 -1 -1 -2 -1 -1 -1 -1 -2 -2 -2 -2 -2
2 1 1 1 1 1 1 1 1 1 1 1 1 1 0 0 1 1 0 -0 -0 -1 -1 -1 -1 -2 -2 -2 -2 -2 -2 -2 -2 -2 -2 -2 -2 -1 -1 -1 -1 -1 -1 -1 -1 -1 -1 -1 -1 -1 -1 -1 -1 -1 -1 -1 -2 -2 -2 -2 -2 -2 -2 -2 -2 -2 -3 -3 -3
1 1 1 1 1 1 1 1 1 1 0 0 0 0 0 0 0 0 -0 -1 -1 -1 -1 -1 -2 -2 -2 -2 -2 -2 -2 -2 -2 -2 -2 -2 -1 -1 -1 -1 -1 -1 -1 -1 -1 -1 -1 -1 -1 -1 -1 -1 -1 -1 -2 -2 -2 -2 -2 -2 -2 -2 -2 -3 -3 -3 -3 -4 -4
Height
1468 1468 1469 1469 1470 1470 1471 1471 1471 1472 1473 1473 1474 1473 1473 1474 1474 1474 1475 1475 1475 1475 1475 1476 1477 1477 1478 1478 1478 1478 1478 1479 1479 1479 1480 1481 1481 1481 1481 1482 1482 1482 1482 1482 1483 1483 1483 1484 1484 1484 1484 1485 1486 1487 1488 1490 1492 1493 1494 1495 1496 1496 1497 1498 1498 1499 1500 1501 1501
1466 1467 1467 1468 1468 1468 1469 1469 1469 1470 1470 1471 1471 1472 1472 1472 1472 1473 1473 1473 1473 1473 1473 1474 1474 1475 1475 1475 1476 1476 1476 1477 1477 1477 1478 1479 1479 1479 1480 1480 1480 1480 1480 1480 1481 1481 1481 1482 1482 1482 1483 1483 1483 1484 1486 1488 1490 1491 1492 1493 1493 1494 1495 1496 1497 1498 1498 1499 1499
1464 1465 1465 1466 1466 1467 1467 1468 1468 1468 1468 1469 1469 1469 1470 1470 1470 1471 1471 1471 1471 1471 1472 1472 1473 1473 1473 1473 1473 1474 1474 1475 1475 1475 1476 1477 1477 1477 1478 1478 1477 1477 1478 1478 1478 1479 1479 1480 1480 1480 1481 1481 1481 1482 1484 1486 1487 1489 1490 1490 1491 1492 1493 1495 1495 1496 1497 1497 1497
1463 1463 1463 1464 1464 1465 1465 1466 1466 1467 1467 1467 1468 1468 1468 1468 1469 1469 1470 1470 1470 1470 1470 1470 1471 1471 1470 1471 1471 1472 1472 1473 1473 1474 1474 1475 1475 1475 1475 1475 1475 1475 1476 1476 1477 1477 1478 1478 1478 1478 1478 1479 1479 1480 1482 1483 1485 1486 1487 1488 1489 1491 1492 1493 1493 1494 1494 1494 1494
1461 1461 1462 1462 1463 1463 1464 1464 1465 1465 1466 1466 1466 1466 1467 1467 1467 1468 1468 1468 1469 1469 1468 1468 1468 1468 1468 1468 1469 1470 1470 1471 1472 1472 1473 1473 1472 1472 1472 1472 1472 1473 1474 1475 1475 1475 1476 1476 1477 1477 1477 1477 1477 1478 1479 1481 1483 1484 1485 1486 1487 1488 1489 1490 1491 1491 1492 1492 1492
1459 1459 1460 1460 1461 1461 1462 1463 1463 1464 1464 1465 1465 1465 1465 1465 1465 1465 1466 1466 1467 1467 1467 1466 1466 1466 1467 1467 1468 1468 1469 1469 1470 1470 1470 1470 1470 1470 1469 1469 1470 1472 1473 1474 1474 1474 1474 1474 1475 1475 1475 1476 1476 1477 1478 1479 1480 1481 1483 1483 1484 1485 1486 1487 1487 1488 1488 1489 1489
1458 1458 1458 1458 1459 1459 1460 1461 1461 1462 1463 1463 1463 1463 1464 1464 1464 1463 1463 1464 1464 1465 1465 1465 1465 1465 1465 1466 1466 1466 1467 1468 1468 1468 1468 1468 1468 1467 1467 1467 1469 1470 1472 1473 1473 1473 1473 1473 1473 1473 1473 1474 1475 1475 1476 1477 1478 1479 1481 1482 1482 1483 1483 1484 1485 1485 1486 1486 1487
1456 1456 1456 1457 1457 1458 1458 1459 1459 1460 1460 1461 1461 1462 1462 1462 1462 1462 1462 1462 1462 1463 1463 1463 1463 1463 1464 1464 1464 1465 1465 1466 1466 1466 1466 1466 1466 1465 1465 1466 1468 1469 1470 1471 1471 1471 1471 1471 1471 1471 1472 1472 1473 1474 1475 1476 1477 1478 1479 1479 1480 1480 1481 1482 1482 1483 1483 1484 1485
1454 1454 1455 1455 1455 1456 1457 1457 1457 1458 1458 1459 1459 1460 1460 1460 1460 1460 1460 1460 1460 1461 1461 1461 1462 1462 1462 1463 1463 1463 1464 1464 1464 1465 1465 1465 1464 1464 1465 1466 1467 1468 1468 1468 1469 1470 1470 1470 1470 1470 1471 1471 1472 1473 1474 1475 1475 1476 1477 1478 1478 1478 1479 1480 1480 1481 1481 1482 1482
1453 1453 1453 1453 1454 1454 1455 1455 1455 1456 1456 1457 1457 1458 1458 1458 1458 1458 1458 1458 1459 1459 1459 1459 1460 1460 1461 1461 1462 1462 1463 1463 1463 1463 1463 1463 1463 1463 1464 1465 1466 1466 1466 1467 1468 1468 1468 1468 1468 1469 1470 1471 1471 1472 1473 1473 1474 1474 1475 1476 1476 1477 1477 1478 1478 1479 1479 1479 1480
1451 1451 1452 1452 1452 1453 1453 1453 1453 1454 1454 1455 1455 1456 1456 1456 1456 1457 1457 1457 1457 1457 1457 1458 1458 1458 1459 1459 1460 1461 1461 1462 1462 1463 1463 1463 1463 1463 1463 1464 1464 1465 1465 1466 1467 1467 1467 1467 1467 1468 1469 1470 1470 1471 1471 1472 1472 1473 1473 1474 1474 1475 1476 1476 1477 1477 1477 1478 1478
1449 1450 1450 1450 1451 1451 1451 1452 1452 1452 1453 1453 1453 1453 1454 1454 1454 1455 1455 1455 1456 1456 1456 1456 1456 1457 1457 1458 1459 1459 1460 1461 1461 1462 1462 1462 1462 1462 1462 1463 1463 1463 1464 1464 1465 1466 1466 1466 1466 1467 1468 1468 1469 1469 1469 1470 1471 1471 1472 1473 1473 1474 1474 1475 1475 1475 1476 1477 1477
1448 1448 1448 1449 1449 1449 1450 1450 1450 1451 1451 1451 1451 1451 1452 1452 1453 1453 1454 1454 1455 1455 1455 1455 1455 1456 1456 1457 1458 1458 1459 1460 1460 1461 1461 1461 1461 1461 1461 1461 1461 1462 1462 1463 1463 1464 1465 1465 1465 1466 1466 1467 1467 1468 1468 1468 1469 1470 1471 1471 1472 1472 1473 1473 1474 1474 1475 1475 1476
1447 1447 1447 1447 1448 1448 1448 1448 1448 1448 1449 1449 1449 1450 1450 1451 1452 1452 1453 1453 1453 1454 1454 1454 1455 1455 1456 1456 1457 1458 1458 1458 1459 1459 1459 1459 1459 1460 1460 1460 1460 1460 1460 1461 1462 1463 1463 1463 1464 1464 1465 1466 1466 1466 1467 1467 1468 1468 1469 1470 1470 1471 1472 1472 1473 1473 1473 1474 1474
1445 1445 1446 1446 1447 1447 1447 1447 1447 1447 1447 1447 1448 1448 1449 1450 1450 1451 1452 1452 1453 1453 1454 1454 1454 1455 1455 1456 1456 1457 1457 1458 1458 1458 1458 1458 1458 1458 1458 1458 1458 1459 1459 1460 1461 1461 1461 1462 1463 1463 1464 1465 1465 1465 1465 1466 1467 1468 1468 1469 1469 1470 1470 1471 1471 1471 1472 1472 1473
1444 1444 1444 1445 1445 1445 1445 1445 1445 1445 1446 1446 1447 1448 1448 1449 1449 1450 1451 1452 1453 1453 1453 1454 1454 1454 1455 1455 1456 1456 1456 1456 1457 1457 1457 1457 1457 1457 1457 1457 1457 1458 1458 1459 1459 1459 1460 1461 1461 1462 1463 1463 1464 1464 1464 1465 1466 1467 1467 1468 1468 1468 1469 1469 1470 1470 1471 1472 1474
1443 1443 1443 1444 1444 1444 1444 1444 1444 1444 1445 1445 1446 1447 1447 1448 1449 1450 1451 1451 1452 1453 1453 1453 1453 1454 1454 1454 1455 1455 1455 1455 1456 1456 1456 1456 1456 1456 1456 1456 1456 1457 1457 1458 1458 1458 1459 1459 1460 1461 1462 1463 1463 1463 1463 1464 1465 1465 1466 1467 1467 1467 1468 1469 1470 1471 1472 1473 1475
1442 1442 1442 1443 1443 1443 1443 1443 1443 1444 1444 1444 1445 1446 1447 1448 1448 1449 1450 1451 1451 1452 1452 1452 1453 1453 1453 1454 1454 1454 1454 1455 1455 1455 1455 1455 1455 1455 1455 1455 1456 1456 1457 1457 1457 1458 1458 1458 1459 1461 1462 1462 1462 1463 1463 1463 1464 1464 1465 1465 1466 1467 1468 1469 1471 1472 1473 1474 1475
1441 1441 1441 1441 1442 1442 1442 1442 1443 1443 1443 1444 1444 1445 1446 1447 1448 1448 1449 1450 1450 1451 1451 1452 1452 1452 1453 1453 1453 1453 1454 1454 1454 1454 1454 1454 1454 1454 1454 1455 1455 1455 1456 1456 1456 1457 1457 1458 1459 1460 1461 1462 1462 1462 1462 1462 1463 1463 1464 1465 1466 1467 1468 1470 1471 1472 1473 1474 1475
1439 1440 1440 1440 1441 1441 1441 1442 1442 1442 1443 1443 1444 1445 1446 1446 1447 1448 1448 1449 1449 1450 1450 1451 1451 1452 1452 1452 1452 1453 1453 1453 1453 1453 1454 1454 1454 1454 1454 1454 1454 1455 1455 1455 1456 1456 1457 1458 1459 1459 1460 1460 1460 1461 1461 1461 1462 1463 1464 1465 1466 1468 1469 1470 1471 1472 1473 1474 1475
1439 1439 1439 1440 1440 1440 1440 1441 1441 1442 1442 1443 1444 1444 1445 1446 1446 1447 1447 1448 1448 1449 1450 1450 1451 1451 1451 1451 1452 1452 1452 1453 1453 1453 1453 1453 1453 1453 1453 1454 1454 1454 1454 1455 1455 1455 1456 1457 1458 1458 1459 1459 1459 1460 1460 1461 1462 1463 1464 1465 1467 1468 1469 1470 1471 1472 1473 1473 1474
1438 1438 1439 1439 1439 1440 1440 1441 1441 1442 1442 1443 1443 1444 1444 1445 1445 1446 1447 1447 1448 1449 1449 1450 1450 1451 1451 1451 1451 1451 1452 1452 1453 1453 1453 1453 1453 1453 1453 1453 1454 1454 1454 1454 1455 1455 1456 1457 1457 1458 1458 1458 1459 1460 1460 1461 1462 1463 1464 1466 1467 1468 1469 1470 1471 1472 1473 1473 1474
1438 1438 1438 1439 1439 1440 1440 1440 1441 1441 1442 1443 1443 1444 1444 1444 1445 1445 1446 1447 1448 1448 1449 1450 1450 1450 1450 1450 1450 1451 1451 1452 1453 1453 1453 1453 1453 1453 1453 1453 1453 1453 1453 1454 1454 1455 1455 1456 1457 1457 1458 1458 1459 1460 1461 1462 1463 1463 1465 1466 1467 1468 1469 1470 1471 1472 1473 1473 1474
1438 1438 1439 1439 1439 1440 1440 1441 1441 1441 1442 1442 1443 1443 1443 1444 1444 1445 1445 1446 1447 1448 1449 1449 1450 1450 1450 1450 1450 1451 1451 1452 1452 1452 1453 1453 1453 1453 1453 1453 1453 1453 1453 1453 1454 1454 1455 1456 1456 1457 1458 1458 1459 1460 1461 1462 1463 1464 1465 1466 1467 1468 1469 1470 1471 1472 1473 1473 1474
1438 1439 1439 1439 1440 1440 1440 1441 1441 1441 1442 1442 1442 1443 1443 1443 1444 1444 1445 1446 1447 1448 1448 1449 1449 1450 1450 1450 1450 1451 1451 1452 1452 1452 1452 1452 1452 1452 1453 1453 1453 1453 1453 1453 1454 1454 1455 1456 1456 1457 1458 1459 1460 1461 1462 1463 1464 1464 1465 1466 1467 1468 1469 1470 1471 1472 1473 1473 1474
1439 1439 1439 1440 1440 1440 1440 1441 1441 1441 1441 1442 1442 1442 1443 1443 1444 1445 1446 1446 1447 1448 1448 1449 1450 1450 1450 1450 1450 1450 1451 1451 1451 1452 1452 1452 1452 1452 1452 1453 1453 1453 1453 1454 1454 1455 1455 1456 1457 1458 1459 1460 1461 1462 1462 1463 1464 1465 1466 1466 1467 1468 1469 1470 1471 1472 1472 1473 1473
1439 1439 1440 1440 1440 1440 1440 1441 1441 1441 1441 1442 1442 1442 1443 1443 1444 1444 1445 1446 1447 1448 1448 1449 1450 1450 1450 1450 1450 1450 1451 1451 1451 1451 1452 1452 1452 1452 1453 1453 1453 1453 1454 1454 1455 1455 1456 1457 1458 1459 1460 1461 1462 1462 1463 1463 1464 1465 1466 1466 1467 1468 1469 1470 1471 1471 1472 1473 1473
1439 1440 1440 1440 1440 1440 1440 1441 1441 1441 1441 1442 1442 1442 1443 1443 1444 1444 1445 1446 1447 1448 1448 1449 1450 1450 1450 1450 1450 1451 1451 1451 1451 1451 1452 1452 1452 1453 1453 1453 1454 1454 1454 1455 1455 1456 1457 1458 1459 1460 1461 1461 1462 1463 1463 1463 1464 1465 1465 1466 1467 1468 1469 1469 1470 1471 1472 1472 1472
1440 1440 1440 1440 1440 1441 1441 1441 1441 1441 1442 1442 1442 1443 1443 1444 1444 1445 1446 1447 1448 1448 1449 1450 1450 1450 1450 1450 1451 1451 1451 1451 1451 1452 1452 1453 1453 1453 1453 1454 1454 1455 1455 1456 1456 1457 1458 1459 1459 1460 1461 1462 1462 1463 1463 1464 1464 1465 1466 1466 1467 1468 1468 1469 1470 1471 1471 1471 1472
1441 1441 1441 1441 1441 1441 1441 1441 1442 1442 1442 1443 1443 1443 1444 1445 1445 1446 1447 1447 1448 1448 1449 1450 1450 1450 1450 1450 1451 1451 1451 1452 1452 1452 1453 1453 1453 1453 1454 1454 1455 1455 1456 1457 1457 1458 1458 1459 1460 1460 1461 1462 1462 1463 1463 1464 1464 1465 1466 1467 1467 1468 1468 1469 1470 1470 1471 1471 1471
1442 1442 1442 1442 1442 1442 1442 1442 1442 1443 1443 1443 1443 1444 1445 1445 1446 1446 1447 1447 1448 1448 1449 1449 1450 1450 1450 1450 1451 1451 1451 1452 1452 1452 1453 1453 1453 1454 1454 1455 1455 1456 1457 1457 1458 1458 1459 1459 1460 1461 1461 1462 1463 1463 1464 1464 1465 1466 1466 1467 1467 1468 1468 1469 1469 1470 1470 1470 1470
1442 1442 1442 1442 1442 1442 1442 1443 1443 1443 1443 1444 1444 1445 1445 1445 1446 1446 1447 1447 1448 1448 1449 1449 1449 1450 1450 1450 1450 1451 1451 1451 1452 1452 1453 1453 1453 1454 1454 1455 1456 1457 1457 1458 1458 1459 1459 1460 1460 1461 1462 1462 1463 1464 1464 1465 1465 1466 1466 1467 1467 1468 1468 1468 1469 1469 1469 1469 1469
1442 1443 1443 1443 1443 1443 1443 1443 1443 1443 1444 1444 1445 1445 1445 1446 1446 1447 1447 1447 1448 1448 1448 1449 1449 1449 1449 1450 1450 1451 1451 1451 1452 1452 1453 1453 1453 1454 1455 1456 1457 1457 1458 1458 1459 1459 1460 1460 1461 1462 1462 1463 1463 1464 1465 1465 1466 1466 1466 1467 1467 1467 1468 1468 1468 1468 1468 1468 1468
1443 1443 1443 1443 1443 1443 1443 1443 1443 1444 1444 1444 1445 1445 1446 1446 1446 1447 1447 1448 1448 1448 1448 1448 1449 1449 1449 1450 1450 1450 1451 1451 1452 1452 1453 1453 1454 1454 1455 1456 1457 1458 1458 1459 1459 1460 1460 1461 1462 1462 1463 1463 1464 1464 1465 1465 1466 1466 1466 1467 1467 1467 1467 1467 1468 1468 1468 1468 1468
1443 1443 1443 1443 1443 1443 1443 1443 1443 1444 1444 1444 1445 1445 1445 1446 1446 1447 1447 1447 1448 1448 1448 1448 1448 1449 1449 1450 1450 1451 1451 1451 1452 1452 1453 1453 1454 1455 1456 1457 1458 1458 1459 1459 1460 1460 1461 1462 1462 1463 1463 1464 1464 1465 1465 1465 1466 1466 1466 1466 1467 1467 1467 1467 1467 1467 1467 1467 1468
1443 1443 1443 1443 1443 1443 1443 1443 1443 1444 1444 1444 1445 1445 1445 1446 1446 1447 1447 1447 1447 1448 1448 1448 1448 1449 1449 1450 1451 1451 1451 1452 1452 1453 1453 1454 1455 1455 1456 1457 1458 1458 1459 1460 1460 1461 1462 1462 1463 1463 1464 1464 1464 1465 1465 1465 1466 1466 1466 1466 1466 1466 1466 1466 1466 1467 1467 1467 1467
1443 1443 1443 1443 1443 1443 1443 1443 1443 1444 1444 1444 1445 1445 1446 1446 1447 1447 1447 1447 1447 1448 1448 1448 1449 1449 1450 1450 1451 1452 1452 1453 1453 1454 1454 1455 1456 1456 1457 1457 1458 1459 1459 1460 1461 1462 1462 1463 1463 1463 1464 1464 1464 1465 1465 1465 1465 1466 1466 1465 1465 1465 1466 1466 1466 1466 1466 1466 1466
1443 1443 1443 1443 1443 1443 1443 1443 1444 1444 1444 1445 1445 1446 1446 1447 1447 1447 1447 1447 1448 1448 1448 1449 1449 1450 1451 1451 1452 1453 1454 1454 1455 1455 1456 1456 1456 1457 1457 1458 1458 1459 1460 1461 1461 1462 1462 1463 1463 1463 1463 1464 1464 1464 1465 1465 1465 1465 1465 1465 1465 1465 1466 1466 1466 1466 1466 1465 1465
1443 1443 1443 1443 1443 1443 1444 1444 1444 1444 1445 1445 1446 1446 1446 1447 1447 1447 1448 1448 1448 1448 1449 1449 1450 1451 1452 1453 1453 1454 1455 1456 1456 1456 1457 1457 1457 1458 1458 1458 1459 1460 1460 1461 1461 1462 1462 1463 1463 1463 1463 1464 1464 1464 1465 1465 1465 1465 1465 1465 1465 1465 1465 1465 1465 1465 1465 1464 1464
1443 1443 1443 1444 1444 1444 1444 1444 1444 1445 1445 1445 1446 1446 1446 1446 1447 1448 1448 1448 1449 1449 1450 1450 1451 1452 1453 1453 1454 1454 1455 1456 1457 1457 1457 1458 1458 1458 1459 1459 1460 1460 1461 1461 1462 1462 1463 1463 1463 1463 1464 1464 1464 1464 1464 1464 1464 1465 1465 1465 1465 1465 1465 1464 1464 1464 1464 1463 1463
1443 1443 1444 1444 1444 1444 1444 1445 1445 1445 1445 1446 1446 1446 1446 1447 1447 1448 1448 1449 1449 1450 1451 1451 1452 1453 1453 1454 1454 1455 1455 1456 1457 1457 1458 1458 1459 1460 1460 1461 1461 1461 1461 1462 1462 1463 1463 1463 1463 1463 1463 1463 1463 1464 1464 1464 1465 1465 1465 1465 1465 1464 1464 1464 1464 1463 1463 1463 1463
Wind_Speed
32 31 30 30 29 29 29 30 31 30 30 29 28 29 31 32 32 33 33 34 35 35 36 36 37 37 38 38 38 39 39 39 39 39 38 37 38 36 32 28 27 25 24 23 23 23 24 26 29 32 35 37 39 40 41 40 41 41 39 36 34 34 34 35 35 35 34 33 32
31 31 31 31 30 30 30 30 30 30 30 30 30 29 29 31 32 32 32 33 34 35 36 36 36 37 38 39 39 39 39 39 40 39 39 39 38 35 31 28 26 25 23 21 20 19 19 20 23 26 29 32 34 37 40 42 42 42 41 39 37 35 34 34 33 32 32 33 34
29 29 30 30 30 30 30 30 29 29 29 29 30 30 30 30 30 30 31 31 32 33 34 35 35 36 37 38 39 39 39 39 39 39 39 39 38 35 31 29 27 26 24 22 21 20 19 19 20 22 24 27 29 33 38 43 44 44 43 42 41 40 39 36 33 32 32 34 36
28 28 29 29 30 30 30 29 29 28 28 28 29 29 29 29 30 31 30 30 29 30 32 33 34 35 37 38 38 38 38 39 39 38 38 39 38 35 33 31 30 29 27 25 24 23 21 21 21 22 24 25 27 30 36 44 46 45 43 42 42 45 46 43 38 34 33 34 36
27 28 28 29 29 29 29 29 29 28 28 28 28 27 26 26 28 28 28 28 27 28 30 32 34 35 37 37 37 37 37 37 37 37 37 39 38 36 35 34 33 31 30 28 27 26 25 24 24 25 26 27 28 29 33 39 42 42 40 40 42 44 47 46 43 39 36 35 36
27 27 28 28 28 29 29 29 29 29 28 26 26 25 24 24 26 28 28 29 29 30 31 33 34 36 36 37 36 36 35 34 34 34 36 37 38 37 37 36 34 32 31 31 30 29 28 27 28 28 29 30 31 31 31 33 36 38 38 38 40 42 43 44 43 41 40 39 38
27 27 27 28 28 28 28 29 29 29 28 26 25 24 24 25 27 29 30 31 31 31 32 33 34 34 35 35 35 34 33 32 31 32 34 36 38 38 38 37 35 33 32 32 32 31 30 30 30 31 32 33 35 35 33 32 33 36 37 37 37 38 39 40 41 41 41 41 40
27 27 27 27 27 27 27 27 28 28 27 26 25 25 25 26 27 29 30 31 30 30 31 31 31 31 31 32 32 31 31 30 30 31 33 35 37 38 38 36 35 33 33 33 33 32 31 30 31 32 33 34 35 35 33 31 31 32 33 34 35 35 36 38 39 40 41 41 41
24 25 26 26 25 25 25 25 26 26 27 27 26 26 26 26 27 28 29 29 28 29 29 29 29 29 29 29 29 29 29 29 30 31 33 35 36 37 36 35 34 33 32 32 32 31 30 30 31 32 33 34 34 32 30 29 29 29 30 32 33 34 35 37 38 39 39 40 40
22 23 24 24 23 23 23 22 23 24 25 26 27 27 28 29 29 29 28 27 27 27 28 28 27 27 26 26 26 27 27 28 29 31 33 34 35 34 34 33 32 32 32 31 31 31 31 31 31 31 31 31 31 29 27 26 27 28 30 31 32 34 36 37 38 38 39 39 38
22 22 22 22 22 21 21 21 21 22 23 24 25 26 27 29 29 28 28 27 26 27 26 26 26 25 24 24 24 24 25 26 28 30 32 32 32 32 32 32 32 32 31 31 31 31 31 31 30 29 28 27 26 25 24 25 26 28 29 31 32 34 36 37 38 38 38 37 37
22 22 22 22 22 21 21 20 20 20 21 22 24 25 25 26 26 26 26 26 26 25 25 25 25 24 23 22 22 23 24 25 26 27 29 30 30 30 31 31 32 32 31 31 31 31 31 30 28 27 26 25 24 23 23 24 26 27 29 31 33 34 36 37 37 37 37 37 36
22 22 22 22 22 22 21 20 20 19 20 21 23 23 24 23 24 24 24 25 25 25 25 24 24 23 22 22 22 22 23 23 23 25 26 27 28 28 29 30 30 31 30 30 30 30 30 29 27 25 25 24 24 23 23 24 26 27 29 31 32 34 35 36 37 37 37 36 35
23 23 23 22 22 22 21 20 19 19 20 21 22 21 21 21 21 22 23 24 24 24 24 24 23 22 22 22 21 21 21 21 22 23 24 25 25 26 26 28 29 29 29 28 27 28 27 26 25 24 24 23 23 24 24 25 26 27 29 30 32 34 35 35 36 37 36 36 35
23 23 23 22 22 21 21 20 20 21 21 21 20 19 19 19 20 21 22 23 23 23 23 23 22 22 21 21 20 20 20 20 20 21 22 22 23 24 24 26 27 27 27 26 26 25 24 23 22 21 22 22 23 24 24 25 26 27 29 31 32 34 35 36 37 37 36 35 33
23 22 22 21 21 21 20 20 21 22 21 20 19 18 18 19 19 20 20 20 21 21 21 21 21 21 20 20 19 18 18 19 19 19 20 20 22 23 24 24 24 24 24 23 23 22 20 20 19 19 20 21 22 23 24 25 26 28 30 32 33 35 36 36 36 35 34 31 29
21 21 20 20 20 20 20 20 20 20 18 17 17 16 16 17 17 17 18 18 18 19 19 20 20 20 19 18 18 17 17 18 18 19 20 21 22 23 23 23 22 21 20 20 19 19 18 18 18 19 21 22 22 23 24 26 27 29 31 33 35 35 35 34 33 31 28 26 23
18 18 18 18 18 19 19 19 18 16 15 14 14 14 13 13 14 14 15 15 15 16 17 18 18 18 18 18 17 17 17 18 20 21 22 23 23 23 22 21 20 19 18 18 17 17 16 16 18 21 24 24 23 24 25 27 28 30 32 33 33 33 31 29 27 25 23 21 19
15 15 15 15 16 16 16 15 14 13 12 12 11 10 9 9 10 11 11 12 12 13 15 16 17 17 17 17 17 17 18 20 22 23 23 23 23 22 20 19 18 18 17 17 17 16 16 16 20 23 26 25 25 25 26 27 29 30 30 30 30 28 26 24 22 20 19 17 16
11 12 12 13 13 13 12 12 11 11 10 8 7 5 5 5 6 7 8 9 10 11 13 14 15 16 16 17 17 18 19 20 22 23 23 22 21 20 19 18 17 17 17 17 17 16 17 18 21 24 25 25 25 26 27 28 28 28 28 27 25 23 22 20 19 17 16 16 15
9 10 10 10 10 10 9 9 8 7 6 4 2 1 2 3 3 4 5 6 7 9 10 11 13 14 15 16 16 17 18 19 20 21 21 20 19 18 17 16 16 17 17 17 17 17 18 20 21 23 23 24 25 26 27 27 26 26 24 23 21 20 19 17 16 15 15 14 14
8 8 8 8 8 7 6 6 5 4 3 2 1 2 2 3 2 2 3 4 5 6 8 9 11 13 14 14 14 15 16 17 18 19 19 18 17 17 17 16 16 16 16 17 18 18 19 20 21 22 22 23 23 24 24 24 23 22 21 20 18 17 16 15 15 14 14 14 14
7 8 7 7 6 6 5 5 4 4 3 3 2 2 3 3 3 3 3 3 3 5 6 8 10 12 13 13 13 13 14 16 17 17 17 17 16 16 16 16 15 15 16 17 18 19 19 20 20 20 20 20 20 20 20 20 19 19 18 17 16 15 14 14 13 14 14 14 14
7 7 7 7 7 6 6 5 4 4 3 3 3 4 4 5 5 5 4 4 3 4 6 8 10 11 12 13 13 13 14 15 16 16 16 15 15 14 15 15 15 14 15 16 17 17 18 18 18 17 17 17 17 17 17 17 16 15 15 14 13 13 13 13 13 14 14 14 14
7 7 6 6 6 6 5 5 4 4 4 4 5 5 6 6 6 6 5 4 4 4 5 7 9 11 12 13 14 14 14 14 15 15 15 14 14 14 13 13 13 13 14 14 15 14 14 14 14 14 15 15 15 16 16 15 14 13 12 12 11 12 12 13 13 14 14 13 13
7 7 7 6 6 6 5 5 4 4 4 5 5 6 6 6 6 6 6 5 5 4 5 7 9 11 13 14 14 14 14 14 13 13 13 13 13 13 12 12 12 11 11 12 12 12 11 11 11 12 13 13 14 15 14 14 13 12 11 11 11 12 13 13 13 13 13 13 12
8 8 7 7 6 6 5 5 4 3 3 4 5 5 6 7 7 8 8 7 6 6 6 7 9 11 13 14 14 13 13 13 13 12 12 12 11 11 11 11 11 10 10 10 10 10 10 10 10 11 11 12 12 13 13 13 12 12 12 12 12 13 13 13 13 13 13 13 12
9 8 8 7 7 6 5 5 4 3 3 3 4 4 5 7 8 9 9 8 7 6 7 8 9 10 12 12 12 12 12 12 12 11 11 10 10 9 9 9 9 9 8 8 8 9 9 9 9 10 10 11 11 12 12 12 12 12 13 13 13 14 14 14 13 13 13 12 11
8 7 7 7 6 6 5 4 3 2 1 1 2 3 5 6 8 9 9 8 7 6 6 6 7 9 10 11 11 11 11 11 10 10 9 8 8 8 8 8 7 7 7 8 8 8 9 9 10 10 10 10 10 11 11 11 12 12 13 14 14 14 14 13 13 12 11 10 10
5 5 5 5 4 4 3 2 2 1 2 3 4 5 7 9 9 9 7 6 5 4 4 5 6 7 9 9 9 9 9 9 8 8 7 7 7 6 6 6 6 7 7 8 8 8 9 9 10 10 10 10 10 10 11 12 12 13 14 14 14 14 13 12 11 10 9 9 8
2 2 2 1 1 1 2 3 4 5 6 7 8 9 9 9 7 5 4 2 2 2 3 5 6 8 8 8 8 7 7 6 6 6 5 5 5 6 6 6 7 7 8 8 8 8 9 10 10 10 10 10 10 11 11 12 13 13 13 13 13 12 11 10 9 8 8 7 7
2 2 3 3 4 5 6 7 8 8 8 8 8 7 5 3 2 1 1 1 2 4 5 7 7 7 7 7 6 6 5 5 5 5 4 5 5 6 6 7 8 9 9 9 9 9 10 10 10 11 11 11 11 12 13 13 13 13 13 12 11 10 9 8 7 7 7 7 7
4 5 6 7 8 8 9 8 8 6 5 4 2 1 0 0 1 2 3 4 5 7 7 7 6 6 6 5 5 5 4 4 4 4 5 5 6 7 8 10 10 11 10 10 10 10 10 11 11 11 12 12 13 13 13 13 12 12 11 10 9 8 7 7 6 6 7 7 7
5 5 5 5 5 4 3 3 2 2 2 2 2 1 1 3 4 6 7 7 7 7 6 5 4 3 3 3 3 4 4 5 5 6 6 7 8 9 11 13 13 12 12 11 11 11 11 11 11 12 12 13 13 13 12 12 11 10 9 7 7 6 6 6 6 6 7 7 8
3 2 2 3 4 4 5 5 4 4 2 2 2 3 5 6 7 7 7 7 6 5 4 4 3 2 2 2 3 4 5 6 7 8 9 10 11 13 14 15 15 14 13 12 11 11 11 11 12 12 12 12 12 11 10 9 8 7 6 6 6 6 6 6 6 6 7 7 7
3 4 4 5 5 5 5 5 4 4 3 4 5 5 6 6 7 6 5 4 3 3 3 2 2 3 4 4 5 6 7 8 10 11 12 13 14 15 16 16 15 14 13 12 11 11 11 12 12 12 11 11 10 9 8 7 6 6 5 5 5 5 6 6 6 6 6 7 7
3 2 2 3 4 4 5 5 5 5 5 5 6 6 5 5 4 3 2 2 1 1 2 2 3 4 5 6 7 8 9 10 12 14 15 15 16 16 16 16 15 14 13 12 12 11 11 11 11 10 9 8 8 7 6 5 5 5 5 5 5 5 5 6 6 6 6 6 7
2 0 2 4 4 4 5 5 5 5 5 4 4 3 3 2 2 1 0 0 1 2 3 4 5 7 8 9 10 11 12 13 15 16 17 17 17 16 16 15 14 13 13 12 11 11 11 10 9 8 7 7 6 5 5 5 5 5 5 5 5 5 5 5 5 5 6 6 6
1 1 2 4 5 5 5 4 4 4 3 2 1 1 0 1 1 2 2 2 2 3 5 6 8 10 11 13 14 16 16 17 17 17 17 17 17 16 15 14 14 13 12 11 10 10 9 8 7 7 6 5 5 5 5 5 4 4 4 4 4 4 4 4 5 5 5 6 6
2 3 4 5 6 6 6 5 4 4 3 2 2 2 3 3 3 3 3 3 4 5 7 9 11 13 14 16 17 19 19 20 19 18 18 17 16 15 14 13 13 12 11 10 9 8 7 7 6 5 5 5 4 4 4 4 4 3 3 3 3 3 4 4 4 4 5 5 6
5 5 6 6 7 7 7 6 5 5 4 4 4 4 5 5 5 5 5 5 6 8 9 11 13 15 16 17 18 19 20 20 20 18 17 15 14 13 12 11 10 10 9 8 7 6 5 5 4 4 4 3 3 3 3 3 3 2 2 3 3 3 3 3 3 3 4 5 5
Wind_Direction
240 239 238 238 239 240 241 242 243 243 242 240 240 243 246 249 251 251 252 252 253 253 254 255 255 255 254 254 254 255 255 256 257 259 261 263 262 260 257 256 255 254 252 251 251 253 254 256 255 253 250 248 247 247 247 247 247 248 249 250 249 247 246 246 246 246 246 247 250
242 242 242 241 242 243 245 246 247 247 246 245 244 243 245 248 250 251 251 251 254 255 256 256 256 256 256 256 255 256 256 258 259 260 262 262 260 257 253 251 250 249 247 245 245 248 252 255 255 254 252 250 250 249 249 249 248 248 249 250 251 251 251 251 250 249 248 250 254
242 243 242 242 242 243 245 246 248 249 249 250 250 248 246 246 247 248 249 251 254 256 257 257 257 257 257 257 257 257 258 258 259 261 262 262 259 254 250 247 246 245 243 241 242 244 249 253 257 259 258 256 255 253 252 250 249 248 248 249 251 254 257 257 256 252 251 252 256
241 241 242 242 242 243 244 246 248 250 252 252 253 251 247 246 247 248 249 251 253 256 257 258 258 258 258 258 259 259 260 260 261 262 263 263 259 253 247 245 244 244 243 243 242 243 246 250 256 261 263 264 262 259 254 250 249 248 247 248 250 253 256 258 257 254 252 253 256
242 242 242 242 243 243 244 246 248 249 251 251 251 249 246 246 247 247 248 248 248 251 254 257 258 259 259 261 262 262 263 263 264 265 265 263 259 253 247 244 243 244 245 247 247 246 246 249 253 258 262 265 265 261 255 250 248 247 247 247 247 249 251 253 254 254 254 254 256
244 244 244 245 245 245 245 246 247 247 247 246 246 245 244 244 246 248 248 247 246 247 250 254 257 259 261 263 264 265 266 267 267 266 266 263 259 254 248 244 244 245 247 249 251 251 251 252 253 256 259 261 262 261 257 252 248 247 248 247 247 247 248 249 250 252 254 255 256
248 247 247 247 248 248 248 247 247 246 244 242 243 243 243 244 246 249 251 252 251 250 250 253 257 260 263 265 267 268 269 270 269 267 266 264 260 254 248 245 246 247 248 249 251 253 254 255 256 257 258 259 258 258 257 254 251 250 249 249 248 247 246 247 248 250 253 255 257
250 249 249 249 250 250 250 250 248 245 243 241 241 241 242 243 245 249 253 256 256 255 255 257 259 262 264 267 268 270 271 271 270 269 267 266 261 255 249 247 248 249 249 249 250 252 254 255 257 259 259 260 258 257 256 255 254 252 249 248 248 247 246 246 247 249 252 255 257
252 251 250 250 250 251 252 252 250 247 244 242 241 241 241 242 244 248 253 256 257 258 259 260 262 264 265 267 268 269 271 271 271 271 270 267 261 255 251 250 250 250 250 250 251 252 253 255 257 258 258 258 257 257 256 255 254 251 248 247 247 247 247 246 247 249 252 255 256
255 253 252 251 251 252 253 253 252 250 246 244 243 244 244 245 247 250 253 255 257 259 260 262 263 264 265 266 267 268 269 271 272 272 271 268 262 257 253 251 250 250 250 250 251 252 253 254 256 257 256 256 256 256 256 255 252 249 247 247 247 247 246 246 247 249 251 253 253
256 254 253 252 252 253 253 254 254 251 248 246 244 244 245 248 249 250 252 255 257 259 261 262 263 264 265 267 268 270 271 272 273 273 273 270 265 260 256 252 251 250 250 249 249 250 252 255 257 258 257 257 256 256 255 253 250 248 247 246 246 245 245 246 247 248 249 251 251
258 256 254 253 253 253 254 255 254 251 248 245 244 244 245 248 250 252 254 257 259 261 262 262 263 265 267 268 269 270 272 273 274 275 275 273 269 265 260 255 252 251 251 250 249 250 252 255 258 260 260 260 259 258 255 252 250 247 246 246 245 244 244 245 246 248 249 249 249
260 258 256 254 253 253 254 253 251 248 245 244 244 245 246 248 251 254 257 260 261 262 263 263 264 266 267 268 269 270 271 273 274 276 276 276 274 270 264 259 256 254 252 252 251 250 252 255 258 260 261 261 260 257 254 252 250 248 246 245 244 244 244 244 246 247 248 249 247
262 260 258 256 254 253 252 251 248 245 244 244 244 244 245 248 252 255 258 260 262 263 264 265 266 267 267 267 268 269 271 272 274 275 276 276 276 274 269 263 259 256 254 254 253 253 254 256 258 259 258 258 256 255 253 251 250 248 246 245 244 244 244 245 246 247 247 245 243
262 262 261 259 257 255 252 248 245 243 243 243 243 244 246 250 252 255 257 260 262 263 265 267 268 268 268 268 268 269 271 272 273 275 276 276 276 276 273 269 263 259 257 256 256 256 257 258 258 258 257 255 254 252 251 250 249 248 246 245 244 244 244 244 245 245 243 241 237
262 263 263 262 260 257 252 248 246 244 243 242 243 245 249 252 254 257 259 262 263 265 267 268 269 270 270 270 270 270 270 271 272 273 274 275 275 275 273 271 267 263 261 259 259 259 259 257 257 258 259 257 254 252 250 249 248 247 245 244 243 243 243 243 243 242 240 238 234
261 263 264 264 263 259 255 251 247 245 243 243 245 248 253 257 259 261 263 265 266 268 269 271 271 272 272 271 270 269 269 270 271 271 272 271 271 271 270 270 269 267 265 263 262 260 257 254 255 259 262 261 257 252 250 248 247 246 244 243 242 242 242 241 240 239 237 236 234
258 261 263 264 263 260 256 252 248 245 243 244 248 253 258 263 265 266 267 268 270 272 274 274 273 273 272 271 270 270 270 271 271 270 269 268 267 267 267 267 267 266 264 261 259 258 255 254 256 258 260 261 256 251 247 246 246 245 244 243 242 240 239 237 236 235 234 234 234
253 256 259 260 260 257 253 248 245 242 242 244 249 256 263 268 272 274 275 276 277 278 278 276 275 273 272 271 271 272 272 272 271 269 267 266 265 265 264 264 262 260 258 256 254 253 253 253 255 257 258 257 253 248 245 244 244 243 243 241 238 236 233 231 229 229 230 231 231
241 245 249 250 249 246 241 238 236 235 236 239 245 255 271 284 287 290 291 290 287 284 282 280 278 277 275 274 275 275 276 274 272 270 268 266 265 264 263 261 258 256 253 251 249 248 249 252 254 254 254 253 250 247 244 242 241 240 238 236 232 228 226 224 224 225 226 226 227
222 226 229 231 229 226 222 221 221 220 220 221 229 279 325 326 318 310 304 298 293 288 286 285 283 281 279 279 280 281 281 278 276 272 270 268 266 264 263 261 258 255 252 249 247 246 247 250 251 251 251 249 248 246 244 241 238 235 232 228 224 222 220 220 220 221 221 222 222
199 202 203 202 200 196 193 192 186 179 165 142 87 37 11 356 346 331 313 301 296 293 291 287 284 282 281 282 285 286 286 283 280 276 273 269 267 264 262 260 260 258 254 251 248 247 247 248 249 249 248 247 245 244 241 237 233 228 224 221 218 217 216 216 217 217 218 218 218
173 171 170 167 159 151 146 140 132 124 113 95 71 45 22 10 7 0 344 325 309 303 298 292 288 285 283 284 287 289 289 287 284 280 275 272 268 263 259 257 258 258 257 254 251 250 250 249 249 247 245 243 241 238 235 230 226 221 218 215 214 212 212 212 213 214 215 215 215
156 150 143 137 129 122 116 110 105 98 86 67 50 36 24 17 15 12 6 354 337 319 310 305 300 295 292 291 292 292 292 290 285 280 276 273 269 264 258 254 255 258 260 259 257 255 253 251 249 246 243 240 236 233 228 223 219 215 213 211 210 208 208 210 211 212 212 211 211
152 144 136 128 123 119 113 105 96 82 66 49 37 26 18 11 8 5 1 356 348 334 322 317 312 306 303 301 300 297 294 290 285 279 274 273 270 265 259 254 255 259 264 264 260 257 255 253 251 249 245 240 234 228 222 217 212 209 207 207 206 207 208 209 209 208 208 207 207
147 140 136 133 129 125 119 111 99 80 59 43 31 20 10 1 354 350 350 352 353 347 334 324 318 313 310 308 306 302 296 291 286 280 276 275 272 269 265 261 262 264 266 263 259 254 251 250 250 250 248 241 232 223 215 208 204 201 201 201 204 205 206 206 205 204 204 204 205
141 138 137 135 131 125 119 115 108 90 60 39 23 12 1 353 347 345 345 348 350 347 337 325 320 316 314 312 308 303 297 291 286 283 281 279 278 276 274 272 270 267 264 259 253 248 245 242 242 240 237 231 222 213 205 199 195 194 196 198 200 201 202 201 201 201 202 204 206
135 134 132 130 126 120 117 115 108 91 61 33 13 359 348 341 336 332 330 328 327 326 325 323 319 317 316 314 309 302 296 291 287 285 284 286 286 284 281 277 270 263 255 248 242 237 233 229 225 221 217 213 208 203 198 194 192 192 193 195 196 197 197 198 199 201 203 206 209
127 125 122 117 113 111 110 106 99 88 63 20 340 322 313 311 308 305 301 298 297 301 309 316 319 320 318 313 308 301 296 291 288 287 288 288 286 282 277 271 261 249 239 232 227 222 217 211 206 202 200 198 197 195 194 193 193 192 192 193 194 194 196 197 200 202 205 210 216
119 115 109 105 103 105 111 121 145 186 213 232 245 259 270 277 280 281 278 277 280 290 303 315 319 318 315 311 307 301 295 290 288 286 285 280 273 267 260 252 237 222 213 210 208 204 198 193 191 190 190 191 192 192 191 191 191 191 191 191 192 194 196 199 202 206 213 220 229
126 121 118 125 157 184 200 208 215 221 228 235 244 254 261 268 270 269 266 266 277 295 310 317 316 314 312 310 305 297 289 285 280 274 268 260 252 243 235 220 203 192 189 190 189 187 184 183 183 184 186 187 188 188 188 188 188 189 189 190 192 194 198 202 208 215 225 235 245
217 228 238 243 242 237 233 232 234 238 243 249 254 258 263 264 260 253 258 294 304 307 311 311 311 309 306 302 294 283 272 263 255 248 240 232 223 213 201 188 178 174 174 177 179 180 179 180 181 182 182 183 184 186 186 186 186 187 189 191 193 197 203 210 219 230 241 251 260
238 245 248 250 249 246 243 241 241 243 244 243 239 226 141 21 322 307 304 304 304 305 306 306 306 303 297 287 274 260 244 232 223 213 207 200 194 185 176 169 164 164 167 172 177 178 178 178 179 180 180 181 182 184 184 186 187 188 190 193 198 205 213 224 236 247 257 268 276
243 247 247 245 240 231 218 200 180 154 131 115 97 58 334 312 304 300 298 299 299 298 297 295 293 289 280 268 251 233 216 202 193 185 180 177 176 171 165 161 158 161 166 172 176 177 177 177 178 179 180 181 182 183 184 186 188 190 193 199 207 217 229 241 254 266 277 285 290
216 189 143 115 106 101 97 93 92 88 77 35 343 322 311 304 298 295 293 294 293 290 284 274 261 239 218 207 206 201 193 182 174 169 167 167 168 165 161 158 158 162 167 173 175 175 175 176 178 179 180 182 183 184 185 187 190 194 201 211 223 236 249 263 276 285 291 293 292
142 122 102 85 76 69 63 57 51 38 13 346 328 316 307 301 295 291 290 291 290 281 264 243 218 196 182 177 176 177 176 170 164 161 162 164 165 163 160 159 161 164 169 172 172 173 175 177 178 180 182 183 185 187 189 192 198 207 218 231 244 259 274 286 293 295 292 287 282
148 125 76 45 35 31 30 30 25 14 358 340 325 313 304 297 291 288 290 295 281 250 223 199 183 174 169 166 164 163 164 162 160 159 160 163 165 164 162 162 164 166 168 170 171 174 175 177 179 181 182 185 188 192 197 206 217 228 241 255 270 285 295 298 295 289 281 275 271
215 289 15 17 17 20 24 26 22 12 358 342 327 312 301 292 282 285 330 55 188 183 175 166 162 160 158 156 152 151 153 155 157 159 160 164 167 168 167 165 165 165 166 167 171 174 176 177 179 182 185 189 195 203 214 225 237 251 267 283 295 300 298 290 282 276 271 269 269
242 7 30 37 40 42 43 42 38 32 24 10 350 317 217 128 117 112 111 124 148 159 160 156 154 154 154 153 149 148 148 150 154 159 163 166 170 173 172 169 165 164 164 166 170 173 176 178 181 185 190 198 208 220 232 247 264 283 296 303 302 295 285 278 274 273 273 274 276
79 66 65 67 68 67 65 62 63 68 76 87 106 121 121 116 115 118 127 136 147 154 155 154 154 155 157 158 155 153 152 153 157 161 166 170 173 174 173 168 164 163 164 166 168 172 176 180 185 191 201 212 227 243 262 282 303 312 310 301 293 287 283 281 281 282 284 286 289
82 82 83 85 86 83 79 76 80 88 98 107 114 117 115 114 121 130 138 144 152 155 157 157 158 160 162 163 162 160 159 159 162 165 168 170 170 169 167 164 162 162 163 165 168 172 178 186 195 208 222 241 265 292 313 325 328 320 307 298 295 294 294 295 295 294 293 294 295